Lihue, HI

10:27 PM HST on November 20, 2017 (GMT -1000)
Lihue

Weather History for PHLI - October, 2012

Change the Weather History Date:

Wednesday, October 10, 2012

  Actual Average Record
Temperature  
Mean Temperature 78 °F 79 °F  
Max Temperature 84 °F 84 °F 87 °F (1958)
Min Temperature 72 °F 73 °F 65 °F (1965)
Degree Days  
Heating Degree Days 0 0  
Month to date heating degree days 0 0  
Since 1 July heating degree days 0 0  
Cooling Degree Days 13 14  
Month to date cooling degree days 137 140  
Year to date cooling degree days 3200 3099  
Growing Degree Days 28 (Base 50)    
Moisture  
Dew Point 71 °F    
Average Humidity 81    
Maximum Humidity 93    
Minimum Humidity 69    
Precipitation  
Precipitation 0.00 in 0.11 in 7.85 in (1966)
Month to date precipitation 0.09 1.03  
Year to date precipitation 35.97 24.60  
Snow  
Snow 0.00 in - - ()
Month to date snowfall 0.0  
Since 1 July snowfall 0.0  
Since 1 September snowfall 0.0  
Snow Depth 0.00 in    
Sea Level Pressure  
Sea Level Pressure 30.07 in    
Wind  
Wind Speed 5 mph (NE)    
Max Wind Speed 12 mph    
Max Gust Speed 14 mph    
Visibility 9 miles    
Events Rain    
T = Trace of Precipitation, MM = Missing Value Source: NWS Daily Summary

Daily Weather History Graph

Daily Weather History Graph

Search for Another Location

Airport or City:

Trip Planner

Search our weather history database for the weather conditions in past years. The results will help you decide how hot, cold, wet, or windy it might be!

Date:

Astronomy

Oct. 10, 2012 Rise Set
Actual Time 6:31 AM HST 6:16 PM HST
Civil Twilight 6:09 AM HST 6:38 PM HST
Nautical Twilight 5:43 AM HST 7:04 PM HST
Astronomical Twilight 5:17 AM HST 7:30 PM HST
Moon 1:54 AM HST (10/10) 2:55 PM HST (10/10)
Length of Visible Light 12h 29m
Length of Day
11h 44m
Waning Crescent, 25% of the Moon is Illuminated
Oct 10
Waning Crescent
Oct 15
New
Oct 21
First Quarter
Oct 29
Full
Nov 6
Last Quarter

Hourly Weather History & Observations

Time (HST) Temp. Heat Index Dew Point Humidity Pressure Visibility Wind Dir Wind Speed Gust Speed Precip Events Conditions
12:53 AM 75.0 °F - 71.1 °F 87% 30.06 in 10.0 mi West 3.5 mph - N/A   Clear
1:53 AM 75.0 °F - 71.1 °F 87% 30.05 in 10.0 mi Calm Calm - N/A   Mostly Cloudy
2:53 AM 73.0 °F - 70.0 °F 90% 30.03 in 10.0 mi Calm Calm - N/A   Clear
3:53 AM 73.0 °F - 69.1 °F 87% 30.03 in 10.0 mi Calm Calm - N/A   Clear
4:53 AM 72.0 °F - 69.1 °F 91% 30.04 in 10.0 mi West 4.6 mph - N/A   Clear
5:53 AM 72.0 °F - 68.0 °F 87% 30.05 in 10.0 mi WSW 3.5 mph - N/A   Clear
6:53 AM 72.0 °F - 68.0 °F 87% 30.06 in 10.0 mi West 5.8 mph - N/A   Clear
7:53 AM 75.9 °F - 70.0 °F 82% 30.08 in 10.0 mi Calm Calm - N/A   Clear
8:53 AM 81.0 °F 85.2 °F 72.0 °F 74% 30.09 in 8.0 mi ENE 4.6 mph - N/A   Clear
9:53 AM 81.0 °F 84.9 °F 71.1 °F 72% 30.09 in 8.0 mi ENE 5.8 mph - N/A   Clear
10:53 AM 82.0 °F 86.7 °F 72.0 °F 71% 30.09 in 10.0 mi ENE 5.8 mph - N/A   Clear
11:53 AM 82.0 °F 86.3 °F 71.1 °F 69% 30.07 in 10.0 mi ENE 8.1 mph - N/A   Clear
12:53 PM 82.9 °F 87.5 °F 71.1 °F 67% 30.05 in 10.0 mi East 10.4 mph - N/A   Clear
1:53 PM 82.9 °F 87.5 °F 71.1 °F 67% 30.02 in 8.0 mi ENE 9.2 mph - N/A   Clear
2:53 PM 82.9 °F 88.0 °F 72.0 °F 69% 30.02 in 8.0 mi NE 10.4 mph - N/A   Clear
3:53 PM 82.9 °F 87.5 °F 71.1 °F 67% 30.02 in 8.0 mi NE 11.5 mph - N/A   Partly Cloudy
4:30 PM 80.6 °F 84.6 °F 71.6 °F 74% 30.04 in 6.0 mi NE 11.5 mph - N/A   Haze
4:51 PM 80.6 °F 84.6 °F 71.6 °F 74% 30.04 in 6.0 mi NNE 11.5 mph - N/A   Haze
4:53 PM 81.0 °F 85.2 °F 72.0 °F 74% 30.04 in 6.0 mi NNE 11.5 mph - N/A   Haze
5:06 PM 80.6 °F 84.6 °F 71.6 °F 74% 30.05 in 6.0 mi NE 11.5 mph - N/A   Haze
5:37 PM 80.6 °F 84.6 °F 71.6 °F 74% 30.05 in 6.0 mi NE 9.2 mph - N/A   Haze
5:48 PM 78.8 °F - 71.6 °F 78% 30.05 in 6.0 mi NE 9.2 mph - N/A   Haze
5:53 PM 79.0 °F - 72.0 °F 79% 30.04 in 6.0 mi NE 9.2 mph - N/A   Haze
6:18 PM 78.8 °F - 71.6 °F 78% 30.06 in 6.0 mi NE 9.2 mph - N/A   Haze
6:53 PM 78.1 °F - 72.0 °F 81% 30.06 in 8.0 mi NE 8.1 mph - N/A   Partly Cloudy
7:19 PM 78.8 °F - 71.6 °F 78% 30.07 in 8.0 mi NE 9.2 mph - N/A   Mostly Cloudy
7:33 PM 78.8 °F - 71.6 °F 78% 30.08 in 8.0 mi NE 6.9 mph - N/A   Scattered Clouds
7:53 PM 78.1 °F - 72.0 °F 81% 30.08 in 8.0 mi NNE 10.4 mph - N/A   Scattered Clouds
8:13 PM 78.8 °F - 71.6 °F 78% 30.09 in 10.0 mi ENE 10.4 mph - N/A   Mostly Cloudy
8:42 PM 78.8 °F - 71.6 °F 78% 30.11 in 10.0 mi NE 9.2 mph - N/A   Partly Cloudy
8:53 PM 78.1 °F - 72.0 °F 81% 30.10 in 10.0 mi NE 9.2 mph - 0.00 in Rain Light Rain
9:19 PM 78.8 °F - 71.6 °F 78% 30.12 in 10.0 mi ENE 10.4 mph - 0.00 in   Scattered Clouds
9:53 PM 78.1 °F - 71.1 °F 79% 30.12 in 10.0 mi NE 10.4 mph - 0.00 in   Scattered Clouds
10:36 PM 78.8 °F - 71.6 °F 78% 30.12 in 10.0 mi NE 11.5 mph - N/A   Mostly Cloudy
10:53 PM 77.0 °F - 71.1 °F 82% 30.11 in 10.0 mi NE 12.7 mph - N/A   Scattered Clouds
11:53 PM 77.0 °F - 71.1 °F 82% 30.11 in 10.0 mi NE 11.5 mph - N/A   Scattered Clouds